Flag for Kazakhstan Weather past 2 weeks in Aqtobe, Kazakhstan

Now
75 °F

Partly sunny.


Feels Like: 76 °F
Forecast: 43 / 56 °F
Wind: 17 mph from West

Location: Aktjubinsk

Current Time: Sep 16, 2014 at 4:58:26 PM

Latest Report: Sep 16, 2014 at 4:30 PM


Visibility: N/A

Pressure: 29.74 "Hg

Humidity: 21%

Dew point: 32 °F

Location of AqtobeLocation

Historic Weather in Aqtobe — Graph

°F

Aqtobe temperature yesterday

Maximum temperature yesterday: 75 °F (at 2:00 PM)
Minimum temperature yesterday: 39 °F (at 7:00 AM)
Average temperature yesterday: 59 °F

Past Weeks' High & Low Weather Summary

 TemperatureHumidityPressure
High81 °F (Sep 4, 1:30 PM)76% (Sep 8, 3:30 AM)30.39 "Hg (Sep 8, 3:30 AM)
Low39 °F (Sep 15, 7:00 AM)12% (Sep 13, 12:30 PM)29.77 "Hg (Sep 16, 2:30 PM)
Average62 °F36%30.10 "Hg
* Reported Sep 1 3:00 PM — Sep 16 3:30 PM, Aqtobe, Weather by CustomWeather, © 2014

Note: Actual official high and low records may vary slightly from our data, if they occured in-between our weather recording intervals... More about our weather records

Advertising

Aqtobe weather history for previous 24 hours

 ConditionsComfort  
Time TempWeatherWind HumidityBarometerVisibility
3:30 PM
Sep 16
75 °FBroken clouds.15 mph21%29.77 "HgN/A
3:00 PM77 °FBroken clouds.10 mph19%29.77 "HgN/A
2:30 PM75 °FSunny.13 mph21%29.77 "Hg10 mi
2:00 PM73 °FPassing clouds.6 mph23%29.80 "HgN/A
1:30 PM75 °FSunny.6 mph22%29.80 "Hg10 mi
1:00 PM73 °FClear.3 mph25%29.83 "HgN/A
12:30 PM72 °FClear.3 mph27%29.83 "Hg5 mi
12:00 PM72 °FClear.3 mph27%29.83 "Hg5 mi
11:30 AM72 °FClear.3 mph29%29.86 "Hg4 mi
11:00 AM70 °FClear.6 mph31%29.86 "Hg4 mi
10:30 AM68 °FClear.6 mph33%29.86 "Hg5 mi
10:00 AM66 °FClear.1 mph32%29.86 "HgN/A
9:30 AM63 °FSunny.No wind39%29.86 "Hg10 mi
9:00 AM61 °FSunny.1 mph39%29.86 "Hg10 mi
8:30 AM57 °FSunny.1 mph44%29.86 "Hg10 mi
8:00 AM55 °FSunny.3 mph47%29.89 "Hg10 mi
7:30 AM55 °FSunny.No wind55%29.89 "Hg10 mi
7:00 AM54 °FSunny.1 mph54%29.89 "Hg10 mi
6:00 AM54 °FClear.3 mph58%29.89 "Hg10 mi
5:30 AM55 °FClear.3 mph55%29.89 "Hg10 mi
5:00 AM57 °FPassing clouds.3 mph51%29.92 "HgN/A
4:30 AM57 °FClear.3 mph48%29.92 "Hg10 mi
4:00 AM59 °FClear.3 mph45%29.92 "Hg10 mi
3:30 AM57 °FClear.3 mph48%29.92 "Hg10 mi
3:00 AM59 °FClear.1 mph45%29.95 "Hg10 mi
2:30 AM59 °FClear.1 mph42%29.95 "Hg10 mi
2:00 AM59 °FClear.3 mph42%29.95 "Hg10 mi
1:30 AM57 °FPassing clouds.3 mph44%29.95 "HgN/A
1:00 AM57 °FClear.6 mph44%29.95 "Hg10 mi
12:30 AM57 °FClear.No wind44%29.95 "Hg5 mi
12:00 AM57 °FClear.6 mph41%29.95 "Hg4 mi
11:30 PM
Sep 15
59 °FClear.No wind42%29.98 "Hg4 mi
11:00 PM57 °FClear.3 mph41%29.98 "Hg4 mi
10:30 PM55 °FClear.No wind44%29.98 "Hg3 mi
10:00 PM57 °FClear.No wind48%29.98 "Hg4 mi
9:30 PM57 °FClear.1 mph48%29.98 "Hg4 mi
9:00 PM61 °FClear.1 mph36%29.98 "Hg4 mi
8:30 PM64 °FClear.3 mph34%29.98 "Hg2 mi
8:00 PM68 °FClear.3 mph33%29.98 "Hg3 mi
7:30 PM70 °FClear.3 mph29%29.98 "Hg4 mi
7:00 PM72 °FClear.3 mph27%29.98 "Hg6 mi
6:30 PM73 °FSunny.1 mph23%30.01 "Hg10 mi
6:00 PM75 °FSunny.6 mph22%30.01 "Hg10 mi
5:30 PM73 °FSunny.6 mph23%30.01 "Hg10 mi
5:00 PM75 °FPassing clouds.6 mph22%30.01 "HgN/A
4:30 PM75 °FPassing clouds.6 mph22%30.01 "HgN/A
4:00 PM75 °FPassing clouds.6 mph22%30.04 "HgN/A
Weather by CustomWeather, © 2014

See weather overviewHow to use our weather pages